Flight Information

DEPARTURE
PHOENIX, AZ
Elevation:
1134
Runways:
8/26 - 11489x150 - CONC-G
7L/25R - 10300x150 - CONC-G
7R/25L - 7800x150 - CONC-G
ATIS:
127.575
Clearance Delivery:
118.1
Ground:
119.75 NORTH 132.55 SOUTH
Tower:
PHOENIX TOWER
120.9 RWY 7L-25R, 7R-25L
118.7 RWY 8-26
DESTINATION
,
Elevation:
TPA:
1000 (est.)


6493.3 NM77° True-13° Var64° HDG

Flight Plan:
(click to file on line)

1. Type
2. Aircraft Identification
3. Aircraft Type / Special Equipment
4. True Airspeed
kts
5. Departure Airport
(ICAO code)
6. Arriving Airport
(ICAO code)
7. Cruising Altitude
ft
8. Alternate Airport
(ICAO code)
9. Route of Flight
10. Remarks


00:00:00 Departure ATIS: Destination ATIS:

Clearance Limit:
Route:
Altitude: Expect in minutes
Frequency:
Transponder: (7500 Hijack / 7600 Lost Comms / 7700 Emergency)


KPHX 030651Z 00000KT 10SM FEW120 29/13 A2986 RMK AO2 SLP091 T02940133 403670256 $
Time: 2022-10-03T06:51:00Z
1664782549
Winds: calm
Visibility: 10.0 sm
Clouds (AGL): FEW 12000
Temperature: 29.4 C
Dew Point: 13.3 C
Pressure: 29.861221 in Hgbr


Notes:

Data extracted from FAA Digital Chart Supplement. Effective: 0901Z Thursday, 27 JAN 2022 to 0900z Thursday, 24 MAR 2022
Current ATIS data is provided courtisy of PilotEdge.